CHINASAT 9B

Last updated on Thu Nov 21 2024 00:02:44 GMT+0000 (Coordinated Universal Time)

1 49125U 21080A 24325.64819108 -.00000311 00000+0 00000+0 0 9999 2 49125 0.0121 8.1977 0003699 231.3317 155.3634 1.00268403 11896
UTC large
Height (km)
Speed (km/s)
/
Latitude / Longitude
Inclination (degrees)
Orbital Period (minutes)
Azimuth
Elevation
Range (km)
Doppler Factor

Next 0 passes for location: London (51.5072 / 0.1276)

Sorry there are no passes over London.